Location: Tauranga
(37.6860°S, 176.1670°E)
Time: 12:11:35
(UTC+13:00)

SPOT 1/Viking Rocket - Pass Details

Date: 24 January 2019
Orbit: 777 x 795 km, 98.5° (Epoch: 19 February)

Event Time Altitude Azimuth Distance (km) Brightness Sun altitude
Rises 23:02:50 0° 159° (SSE) 3,332 7.2 -23.7°
Reaches altitude 10° 23:05:20 10° 151° (SSE) 2,394 6.3 -24.0°
Enters shadow 23:09:29 37° 104° (ESE) 1,222 4.3 -24.5°
